Flag for Germany Weather past 2 weeks in Grevenbroich, North Rhine-Westphalia, Germany

Now
50 °F

Clear.


Feels Like: 49 °F
Forecast: 37 / 53 °F
Wind: 3 mph from East

Location: Monchengladbach Airport

Current Time: Apr 27, 2015 at 8:47:13 PM

Latest Report: Apr 27, 2015 at 7:50 PM


Visibility: 10 mi

Pressure: 29.77 "Hg

Humidity: 71%

Dew point: 41 °F

Location of GrevenbroichLocation

Historic Weather in Grevenbroich — Graph

°F

Grevenbroich temperature yesterday

Maximum temperature yesterday: 63 °F (at 3:20 PM)
Minimum temperature yesterday: 55 °F (at 7:50 AM)
Average temperature yesterday: 59 °F

Past Weeks' High & Low Weather Summary

 TemperatureHumidityPressure
High75 °F (Apr 15, 3:20 PM)100% (Apr 16, 7:50 AM)30.48 "Hg (Apr 16, 7:50 AM)
Low39 °F (Apr 18, 7:50 AM)26% (Apr 21, 5:20 PM)29.68 "Hg (Apr 26, 3:50 PM)
Average57 °F60%30.11 "Hg
* Reported Apr 12 7:20 PM — Apr 27 7:20 PM, Grevenbroich, Weather by CustomWeather, © 2015

Note: Actual official high and low records may vary slightly from our data, if they occured in-between our weather recording intervals... More about our weather records

Advertising

Grevenbroich weather history for previous 24 hours

 ConditionsComfort  
Time TempWeatherWind HumidityBarometerVisibility
7:20 PM
Mon, Apr 27
52 °FClear.3 mph67%29.77 "Hg10 mi
6:50 PM52 °FClear.2 mph62%29.77 "Hg10 mi
6:20 PM52 °FClear.2 mph62%29.77 "Hg10 mi
5:50 PM52 °FPassing clouds.6 mph58%29.77 "HgN/A
5:20 PM52 °FPassing clouds.7 mph58%29.77 "HgN/A
4:50 PM52 °FPassing clouds.7 mph58%29.77 "HgN/A
4:20 PM52 °FPassing clouds.10 mph58%29.77 "HgN/A
3:50 PM52 °FPassing clouds.8 mph62%29.77 "HgN/A
3:20 PM50 °FPassing clouds.9 mph67%29.77 "HgN/A
2:50 PM50 °FPassing clouds.10 mph67%29.77 "HgN/A
2:20 PM50 °FPassing clouds.12 mph67%29.77 "HgN/A
1:50 PM50 °FPassing clouds.10 mph67%29.77 "HgN/A
1:20 PM50 °FPassing clouds.9 mph67%29.74 "HgN/A
12:50 PM50 °FPartly sunny.12 mph71%29.77 "HgN/A
12:20 PM48 °FPartly sunny.10 mph76%29.74 "HgN/A
11:50 AM48 °FPartly sunny.14 mph76%29.74 "HgN/A
11:20 AM48 °FBroken clouds.12 mph82%29.74 "HgN/A
10:50 AM48 °FBroken clouds.10 mph87%29.74 "HgN/A
10:20 AM48 °FPartly sunny.13 mph87%29.71 "Hg5 mi
9:50 AM46 °FPartly sunny.10 mph93%29.71 "Hg4 mi
9:20 AM46 °FFog.12 mph93%29.71 "Hg3 mi
8:50 AM45 °FFog.10 mph100%29.71 "Hg3 mi
8:20 AM45 °FDrizzle. Fog.12 mph100%29.68 "Hg3 mi
7:50 AM46 °FSprinkles. Fog.10 mph100%29.68 "Hg3 mi
8:20 PM
Sun, Apr 26
57 °FClear.6 mph82%29.68 "Hg10 mi
Weather by CustomWeather, © 2015

See weather overviewHow to use our weather pages